When you browse on this site, cookies collect data to enhance your experience and personalize the content and advertising you see.
Visit our Privacy Policy to learn more. By continuing to use the site, you agree to this use of cookies and data.
  • Em Portugal
  • Lista de países
  • Para 7 dias
  • Temperatura da água
  • Mapa do tempo
  • Widgets de tempo
  • user-avatar
    Iniciar Sessão

    Previsão horária em Dashev

    Hoje, 2 Junho, Terça-feira

    Tempo Temperatura Precipitação Vento Pressão Humidade
    00:00 +4°C° 0 mm 3 m/s 738 mmHg 94%
    01:00 +4°C° 0 mm 3 m/s 738 mmHg 95%
    02:00 +3°C° 0 mm 3 m/s 738 mmHg 95%
    03:00 +3°C° 0 mm 3 m/s 737 mmHg 96%
    04:00 +3°C° 0 mm 3 m/s 737 mmHg 96%
    05:00 +3°C° 0 mm 3 m/s 736 mmHg 97%
    06:00 +5°C° 0 mm 3 m/s 737 mmHg 91%
    07:00 +6°C° 0 mm 4 m/s 737 mmHg 86%
    08:00 +8°C° 0 mm 4 m/s 737 mmHg 81%
    09:00 +9°C° 0.2 mm 5 m/s 736 mmHg 80%
    10:00 +9°C° 0.2 mm 5 m/s 736 mmHg 80%
    11:00 +10°C° 0.2 mm 5 m/s 736 mmHg 79%
    12:00 +10°C° 0.2 mm 5 m/s 736 mmHg 76%
    13:00 +12°C° 0.2 mm 5 m/s 736 mmHg 73%
    14:00 +13°C° 0.2 mm 5 m/s 736 mmHg 71%
    15:00 +13°C° 0.3 mm 5 m/s 736 mmHg 72%
    16:00 +13°C° 0.3 mm 5 m/s 735 mmHg 74%
    17:00 +13°C° 0.3 mm 5 m/s 735 mmHg 76%
    18:00 +11°C° 0.2 mm 4 m/s 735 mmHg 81%
    19:00 +10°C° 0.2 mm 4 m/s 735 mmHg 86%
    20:00 +9°C° 0.2 mm 3 m/s 735 mmHg 90%
    21:00 +8°C° 0 mm 3 m/s 735 mmHg 92%
    22:00 +7°C° 0 mm 3 m/s 735 mmHg 93%
    23:00 +5°C° 0 mm 3 m/s 735 mmHg 94%

    Amanhã, 3 Junho, Quarta-feira

    Tempo Temperatura Precipitação Vento Pressão Humidade
    00:00 +5°C° 0 mm 3 m/s 735 mmHg 95%
    01:00 +7°C° 0 mm 3 m/s 735 mmHg 95%
    02:00 +6°C° 0 mm 4 m/s 735 mmHg 95%
    03:00 +6°C° 0 mm 4 m/s 735 mmHg 95%
    04:00 +6°C° 0 mm 4 m/s 735 mmHg 95%
    05:00 +6°C° 0 mm 4 m/s 735 mmHg 95%
    06:00 +7°C° 0 mm 4 m/s 735 mmHg 93%
    07:00 +8°C° 0 mm 5 m/s 735 mmHg 90%
    08:00 +9°C° 0 mm 5 m/s 735 mmHg 87%
    09:00 +10°C° 0.3 mm 5 m/s 735 mmHg 85%
    10:00 +11°C° 0.3 mm 6 m/s 735 mmHg 82%
    11:00 +13°C° 0.3 mm 6 m/s 735 mmHg 80%
    12:00 +13°C° 0.2 mm 6 m/s 735 mmHg 77%
    13:00 +14°C° 0.2 mm 6 m/s 735 mmHg 74%
    14:00 +15°C° 0.2 mm 6 m/s 735 mmHg 71%
    15:00 +15°C° 0.4 mm 5 m/s 735 mmHg 73%
    16:00 +15°C° 0.4 mm 5 m/s 735 mmHg 75%
    17:00 +15°C° 0.4 mm 5 m/s 735 mmHg 76%
    18:00 +13°C° 0.2 mm 4 m/s 735 mmHg 81%
    19:00 +12°C° 0.2 mm 3 m/s 735 mmHg 85%
    20:00 +11°C° 0.2 mm 3 m/s 735 mmHg 90%
    21:00 +10°C° 0 mm 3 m/s 735 mmHg 91%
    22:00 +10°C° 0 mm 3 m/s 735 mmHg 92%
    23:00 +9°C° 0 mm 3 m/s 735 mmHg 92%

    Depois de amanhã, 4 Junho, Quinta-feira

    Tempo Temperatura Precipitação Vento Pressão Humidade
    00:00 +9°C° 0 mm 3 m/s 735 mmHg 92%
    01:00 +9°C° 0 mm 2 m/s 735 mmHg 91%
    02:00 +9°C° 0 mm 2 m/s 735 mmHg 91%
    03:00 +9°C° 0.1 mm 2 m/s 735 mmHg 91%
    04:00 +9°C° 0.1 mm 2 m/s 735 mmHg 92%
    05:00 +9°C° 0.1 mm 2 m/s 735 mmHg 93%
    06:00 +12°C° 0.2 mm 2 m/s 735 mmHg 90%
    07:00 +13°C° 0.2 mm 2 m/s 735 mmHg 87%
    08:00 +14°C° 0.2 mm 3 m/s 735 mmHg 85%
    09:00 +16°C° 1 mm 3 m/s 735 mmHg 79%
    10:00 +17°C° 1 mm 4 m/s 735 mmHg 72%
    11:00 +19°C° 1 mm 4 m/s 735 mmHg 66%
    12:00 +19°C° 1.2 mm 4 m/s 735 mmHg 66%
    13:00 +19°C° 1.2 mm 4 m/s 735 mmHg 66%
    14:00 +20°C° 1.2 mm 4 m/s 735 mmHg 65%
    15:00 +19°C° 0.4 mm 4 m/s 735 mmHg 68%
    16:00 +19°C° 0.4 mm 4 m/s 735 mmHg 70%
    17:00 +19°C° 0.4 mm 3 m/s 735 mmHg 72%
    18:00 +17°C° 0.1 mm 3 m/s 735 mmHg 77%
    19:00 +16°C° 0.1 mm 3 m/s 735 mmHg 81%
    20:00 +13°C° 0.1 mm 3 m/s 735 mmHg 86%
    21:00 +13°C° 0 mm 3 m/s 735 mmHg 87%
    22:00 +12°C° 0 mm 3 m/s 736 mmHg 89%
    23:00 +11°C° 0 mm 3 m/s 736 mmHg 90%

    5 Junho, Sexta-feira

    Tempo Temperatura Precipitação Vento Pressão Humidade
    00:00 +12°C° 0 mm 3 m/s 736 mmHg 89%
    01:00 +12°C° 0 mm 3 m/s 736 mmHg 88%
    02:00 +12°C° 0 mm 3 m/s 736 mmHg 87%
    03:00 +12°C° 0 mm 3 m/s 736 mmHg 88%
    04:00 +12°C° 0 mm 3 m/s 736 mmHg 88%
    05:00 +12°C° 0 mm 3 m/s 736 mmHg 88%
    06:00 +13°C° 0.1 mm 3 m/s 736 mmHg 89%
    07:00 +14°C° 0.1 mm 4 m/s 736 mmHg 89%
    08:00 +15°C° 0.1 mm 4 m/s 737 mmHg 89%
    09:00 +17°C° 0.1 mm 4 m/s 737 mmHg 88%
    10:00 +18°C° 0.1 mm 4 m/s 737 mmHg 87%
    11:00 +19°C° 0.1 mm 4 m/s 737 mmHg 85%
    12:00 +20°C° 0.6 mm 4 m/s 737 mmHg 80%
    13:00 +22°C° 0.6 mm 5 m/s 737 mmHg 74%
    14:00 +25°C° 0.6 mm 5 m/s 737 mmHg 68%
    15:00 +25°C° 0.2 mm 4 m/s 737 mmHg 71%
    16:00 +25°C° 0.2 mm 3 m/s 737 mmHg 73%
    17:00 +25°C° 0.2 mm 2 m/s 737 mmHg 76%
    18:00 +22°C° 0 mm 3 m/s 737 mmHg 79%
    19:00 +21°C° 0 mm 3 m/s 737 mmHg 82%
    20:00 +19°C° 0 mm 3 m/s 737 mmHg 85%
    21:00 +19°C° 0 mm 3 m/s 737 mmHg 87%
    22:00 +18°C° 0 mm 4 m/s 737 mmHg 90%
    23:00 +17°C° 0 mm 4 m/s 737 mmHg 92%

    6 Junho, Sábado

    Tempo Temperatura Precipitação Vento Pressão Humidade
    00:00 +17°C° 0 mm 4 m/s 737 mmHg 93%
    01:00 +15°C° 0 mm 4 m/s 737 mmHg 93%
    02:00 +15°C° 0 mm 4 m/s 737 mmHg 94%
    03:00 +15°C° 0 mm 4 m/s 737 mmHg 95%
    04:00 +15°C° 0 mm 4 m/s 737 mmHg 96%
    05:00 +15°C° 0 mm 5 m/s 737 mmHg 97%
    06:00 +16°C° 0 mm 5 m/s 737 mmHg 93%
    07:00 +17°C° 0 mm 5 m/s 737 mmHg 90%
    08:00 +20°C° 0 mm 5 m/s 738 mmHg 86%
    09:00 +21°C° 0 mm 4 m/s 738 mmHg 83%
    10:00 +22°C° 0 mm 4 m/s 738 mmHg 79%
    11:00 +25°C° 0 mm 4 m/s 739 mmHg 76%
    12:00 +25°C° 0.7 mm 3 m/s 739 mmHg 75%
    13:00 +25°C° 0.7 mm 3 m/s 739 mmHg 75%
    14:00 +25°C° 0.7 mm 2 m/s 739 mmHg 74%
    15:00 +25°C° 1.4 mm 2 m/s 739 mmHg 76%
    16:00 +25°C° 1.4 mm 2 m/s 739 mmHg 78%
    17:00 +24°C° 1.4 mm 2 m/s 739 mmHg 80%
    18:00 +23°C° 0.6 mm 2 m/s 739 mmHg 83%
    19:00 +22°C° 0.6 mm 1 m/s 740 mmHg 86%
    20:00 +21°C° 0.6 mm 1 m/s 740 mmHg 88%
    21:00 +19°C° 0 mm 2 m/s 740 mmHg 90%
    22:00 +18°C° 0 mm 2 m/s 741 mmHg 92%
    23:00 +18°C° 0 mm 2 m/s 741 mmHg 93%

    7 Junho, Domingo

    Tempo Temperatura Precipitação Vento Pressão Humidade
    00:00 +17°C° 0.5 mm 2 m/s 741 mmHg 94%
    01:00 +17°C° 0.5 mm 3 m/s 741 mmHg 95%
    02:00 +17°C° 0.5 mm 3 m/s 741 mmHg 95%
    03:00 +17°C° 0 mm 3 m/s 741 mmHg 96%
    04:00 +17°C° 0 mm 2 m/s 741 mmHg 96%
    05:00 +16°C° 0 mm 2 m/s 741 mmHg 97%
    06:00 +18°C° 0 mm 3 m/s 741 mmHg 94%
    07:00 +19°C° 0 mm 3 m/s 742 mmHg 91%
    08:00 +21°C° 0 mm 3 m/s 742 mmHg 88%
    09:00 +22°C° 0.3 mm 3 m/s 742 mmHg 83%
    10:00 +24°C° 0.3 mm 3 m/s 742 mmHg 79%
    11:00 +25°C° 0.3 mm 4 m/s 742 mmHg 74%
    12:00 +25°C° 0.7 mm 4 m/s 742 mmHg 72%
    13:00 +26°C° 0.7 mm 4 m/s 742 mmHg 69%
    14:00 +26°C° 0.7 mm 4 m/s 741 mmHg 67%
    15:00 +26°C° 1.2 mm 4 m/s 741 mmHg 71%
    16:00 +25°C° 1.2 mm 4 m/s 741 mmHg 74%
    17:00 +24°C° 1.2 mm 3 m/s 741 mmHg 78%
    18:00 +22°C° 0.1 mm 3 m/s 741 mmHg 79%
    19:00 +21°C° 0.1 mm 3 m/s 741 mmHg 81%
    20:00 +19°C° 0.1 mm 2 m/s 741 mmHg 83%
    21:00 +19°C° 0 mm 2 m/s 741 mmHg 82%
    22:00 +19°C° 0 mm 2 m/s 741 mmHg 81%
    23:00 +18°C° 0 mm 2 m/s 741 mmHg 80%
    Mostrar mais